Regional Weather Roundup
Issued by NWS Newport/Morehead, NC

Current Version | Previous Version | Graphics & Text | Print | Product List | Glossary Off
Versions: 1 2 3 4 5 6 7 8 9 10 11 12 13 14 15 16 17 18 19 20 21 22 23 24 25 26 27 28 29 30 31 32 33 34 35 36 37 38 39 40 41 42 43 44 45 46 47 48 49 50

000
ASUS42 KMHX 251913
RWRMHX
WEATHER ROUNDUP FOR EASTERN NORTH CAROLINA
NATIONAL WEATHER SERVICE NEWPORT/MOREHEAD CITY NC
300 PM EDT MON JUL 25 2016

NOTE: "FAIR" INDICATES FEW OR NO CLOUDS BELOW 12,000 FEET
WITH NO SIGNIFICANT WEATHER AND/OR OBSTRUCTIONS TO VISIBILITY

NCZ015>017-031-032-045>047-102-103-252000-
NORTH COAST

CITY           SKY/WX    TMP DP  RH WIND       PRES   REMARKS
EDENTON        SUNNY     95  71  45 SW9       29.99F HX 101
ELIZABETH CITY SUNNY     93  76  57 S9        29.98F HX 105
KITTY HAWK     CLEAR     99  73  43 S6        29.98F HX 109
MANTEO           N/A     89  80  74 S15G22    29.99F HX 106

$$

NCZ045>047-081-094-103-104-252000-
CENTRAL COAST

CITY           SKY/WX    TMP DP  RH WIND       PRES   REMARKS
FRISCO         MOSUNNY   87  77  72 SW10      30.03F

$$

NCZ095-097-098-100-101-252000-
SOUTHERN COAST

CITY           SKY/WX    TMP DP  RH WIND       PRES   REMARKS
BEAUFORT       SUNNY     88  78  72 SW18      30.04F HX 101
CEDAR ISLAND   NOT AVBL
JACKSONVILLE   SUNNY     91  75  59 S14       30.02F HX 101
PINEY ISLAND   NOT AVBL
WILMINGTON     PTSUNNY   90  76  63 S12G21    30.03F HX 101


$$

NCZ011>013-027>030-043-044-078>080-089-090>093-098-252000-
COASTAL PLAIN

CITY           SKY/WX    TMP DP  RH WIND       PRES   REMARKS
AHOSKIE        SUNNY     92  76  58 S3        29.98F HX 103
CLINTON        SUNNY     93  75  56 SW8       30.02S HX 104
ELIZABETHTOWN  MOSUNNY   94  73  51 SW9       30.03S HX 103
GOLDSBORO      MOSUNNY   96  74  49 W9        29.99F HX 107
GREENVILLE     PTSUNNY   91  77  62 SW7       30.01F HX 105
HAVELOCK       MOSUNNY   91  76  61 SW14G21   30.03F HX 103
KENANSVILLE    NOT AVBL
KINSTON        MOSUNNY   95  73  49 SW7       30.01F HX 105
NEW BERN       MOSUNNY   93  77  59 S9        30.02F HX 107
RICHLANDS      MOSUNNY   95  75  52 S7        30.02F HX 107
ROCKY MOUNT    SUNNY     94  77  57 S12       29.99F HX 108
WASHINGTON     MOSUNNY   92  75  56 SW9       29.99F HX 103
WHITEVILLE     MOSUNNY   92  73  54 S9        30.03S HX 100

$$

AMZ130-135-150-152-154-156-158-170-250-252-270-ANZ085-086-088-633-658-670-252000-
MARINE OBSERVATIONS

STATION/POSITION TIME  TEMP    WIND        PRES    WAVE   SWELL
                       AIR SEA DIR/SP/G            HT/PER HT/PER
                 (UTC) (F)     (DEG/KT/KT) (MB)    (FT/S) (FT/S)
CHESAPEAKE LIGHT NOT AVBL
64 E VA BEACH    1850   83 82  210/ 12/ 16 1015.1    3/ 5   2/ 9
DUCK             1800   89 65  200/  9/ 13 1015.3
2 E DUCK         1811      75                N/A     1/ 8
OREGON INLET     NOT AVBL
13E OREGON INLT  1900      83                N/A     2/ 4
HATTERAS CG      1800   87 83  200/  9/ 14 1017.0
DIAMOND BUOY     1750   84 86  220/ 12/ 14 1017.7    2/ 5   2/ 8
CAPE LOOKOUT     1800   87     200/ 10/ 13 1017.6
BEAUFORT LAB     1800   86 83  210/ 12/ 17 1016.9
30 SE NEW RVR IN 1808   85 85  220/ 12/ 16 1018.1
30 SE NEW RVR IN 1825      85                N/A     3/ 4
27 SE WRIGHTSVLE 1808   85 85  210/ 12/ 14 1018.2
5 SE WRIGHTSVLE  1808   85 84  210/ 14/ 17 1018.6
225 S CAPE HAT   1850   83 85  160/  8/ 10 1019.7    2/ 8   2/ 8
41 SE CHARLESTON 1850   85 87  190/  6/  8 1017.7    2/ 4   2/ 4

$$



USA.gov is the U.S. government's official web portal to all federal, state and local government web resources and services.